EW4271 Weather Reports


time (UTC)temp
C
wind
direction
speed
KPH
gust
KPH
rain 1hr
cm
rain 24hr
cm
rain mn
cm
humidity
%
barometer
mb
20260906145012 17 169 0.0 0.0 0.00 0.28 0.00 67 1027.4
20260906144547 16 169 0.0 0.0 0.00 0.28 0.00 74 1027.3
20260906144040 15 169 0.0 0.0 0.00 0.28 0.00 77 1027.3
20260906143513 15 169 0.0 0.0 0.00 0.28 0.00 80 1027.1
20260906143049 14 169 0.0 0.0 0.00 0.28 0.00 80 1027.1
20260906142522 13 169 0.0 0.0 0.00 0.28 0.00 82 1027.1
20260906142016 13 169 0.0 0.0 0.00 0.28 0.00 80 1027.0
20260906141531 12 169 0.0 0.0 0.00 0.28 0.00 81 1027.1
20260906141024 12 169 0.0 0.0 0.00 0.28 0.00 81 1027.1
20260906140522 12 169 0.0 0.0 0.00 0.28 0.00 81 1027.1
20260906140015 12 169 0.0 0.0 0.00 0.28 0.00 80 1027.1
20260906135530 12 169 0.0 0.0 0.00 0.28 0.00 80 1027.1
20260906135023 12 169 0.0 0.0 0.00 0.28 0.00 81 1027.0
20260906134517 11 169 0.0 0.0 0.00 0.28 0.00 80 1027.0
20260906134011 11 169 0.0 0.0 0.00 0.28 0.00 79 1026.9
20260906133524 11 169 0.0 0.0 0.00 0.28 0.00 80 1026.8
20260906133017 11 169 0.0 0.0 0.00 0.28 0.00 80 1026.9
20260906132511 11 169 0.0 0.0 0.00 0.28 0.00 79 1026.7
20260906132047 11 169 0.0 0.0 0.00 0.28 0.00 80 1026.7
20260906131521 11 169 0.0 0.0 0.00 0.28 0.00 78 1026.7
20260906131015 11 169 0.0 0.0 0.00 0.28 0.00 78 1026.7
20260906130509 11 169 0.0 0.0 0.00 0.28 0.00 78 1026.6
20260906130023 11 169 0.0 0.0 0.00 0.28 0.00 78 1026.5
20260906125538 11 169 0.0 0.0 0.00 0.28 0.00 79 1026.5
20260906125010 11 169 0.0 0.0 0.00 0.28 0.00 79 1026.4
20260906124524 11 169 0.0 0.0 0.00 0.28 0.00 78 1026.4
20260906124018 11 169 0.0 0.0 0.00 0.28 0.00 78 1026.4
20260906123512 11 169 0.0 0.0 0.00 0.28 0.00 79 1026.4
20260906123011 11 169 0.0 0.0 0.00 0.28 0.00 79 1026.4
20260906122524 11 169 0.0 0.0 0.00 0.28 0.00 79 1026.3
20260906122018 11 169 0.0 0.0 0.00 0.28 0.00 78 1026.4
20260906121513 11 169 0.0 0.0 0.00 0.28 0.00 78 1026.4
20260906121026 11 169 0.0 0.0 0.00 0.28 0.00 78 1026.4
20260906120542 12 169 0.0 0.0 0.00 0.28 0.00 79 1026.4
20260906120014 12 169 0.0 0.0 0.00 0.28 0.00 78 1026.4
20260906115528 12 169 0.0 0.0 0.00 0.28 0.00 78 1026.4
20260906115026 12 169 0.0 0.0 0.00 0.28 0.00 79 1026.5
20260906114520 12 169 0.0 0.0 0.00 0.28 0.00 77 1026.5
20260906114014 12 169 0.0 0.0 0.00 0.28 0.00 77 1026.5
20260906113528 12 169 0.0 0.0 0.00 0.28 0.00 78 1026.5
20260906113022 12 169 0.0 0.0 0.00 0.28 0.00 78 1026.5
20260906112516 12 169 0.0 0.0 0.00 0.28 0.00 78 1026.4
20260906112009 12 169 0.0 0.0 0.00 0.28 0.00 77 1026.4
20260906111521 12 169 0.0 0.0 0.00 0.28 0.00 77 1026.4
20260906111014 12 169 0.0 0.0 0.00 0.28 0.00 75 1026.4
20260906110526 12 169 0.0 0.0 0.00 0.28 0.00 77 1026.3
20260906110024 12 169 0.0 0.0 0.00 0.28 0.00 77 1026.4
20260906105518 12 169 0.0 0.0 0.00 0.28 0.00 75 1026.4
20260906105033 12 169 0.0 0.0 0.00 0.28 0.00 77 1026.4
20260906104547 12 169 0.0 0.0 0.00 0.28 0.00 77 1026.3
20260906104021 12 169 0.0 0.0 0.00 0.28 0.00 75 1026.4
20260906103514 12 169 0.0 0.0 0.00 0.28 0.00 75 1026.4
20260906102521 12 169 0.0 0.0 0.00 0.28 0.00 73 1026.3
20260906102015 12 169 0.0 0.0 0.00 0.28 0.00 74 1026.1
20260906101513 13 169 0.0 0.0 0.00 0.28 0.00 74 1026.0
20260906101028 13 169 0.0 0.0 0.00 0.28 0.00 75 1026.0
20260906100521 13 169 0.0 0.0 0.00 0.28 0.00 73 1026.0
20260906100014 13 169 0.0 0.0 0.00 0.28 0.00 74 1026.0
20260906095528 13 169 0.0 0.0 0.00 0.28 0.00 74 1026.0
20260906095022 13 169 0.0 0.0 0.00 0.28 0.00 72 1025.9
20260906094537 13 169 0.0 0.0 0.00 0.28 0.00 73 1026.0
20260906094010 13 169 0.0 0.0 0.00 0.28 0.00 74 1026.0
20260906093525 13 169 0.0 0.0 0.00 0.28 0.00 74 1026.0
20260906093039 13 169 0.0 0.0 0.00 0.28 0.00 75 1025.8
20260906092516 13 169 0.0 0.0 0.00 0.28 0.00 73 1025.7
20260906092009 13 169 0.0 0.0 0.00 0.28 0.00 73 1025.7
20260906091523 13 169 0.0 0.0 0.00 0.28 0.00 71 1025.7
20260906091016 13 169 0.0 0.0 0.00 0.28 0.00 73 1025.7
20260906090510 13 169 0.0 0.0 0.00 0.28 0.00 73 1025.7
20260906090024 13 169 0.0 0.0 0.00 0.28 0.00 74 1025.7
20260906085518 13 169 0.0 0.0 0.00 0.28 0.00 72 1025.7
20260906085011 13 169 0.0 0.0 0.00 0.28 0.00 73 1025.7
20260906084529 13 169 0.0 0.0 0.00 0.28 0.00 73 1025.7
20260906084023 13 169 0.0 0.0 0.00 0.28 0.00 73 1025.8
20260906083518 13 169 0.0 0.0 0.00 0.28 0.00 73 1025.9
20260906083012 13 169 0.0 0.0 0.00 0.28 0.00 73 1025.9
20260906082526 13 51 0.0 0.0 0.00 0.28 0.00 75 1025.9
20260906082019 13 51 0.0 0.0 0.00 0.28 0.00 74 1025.9
20260906081512 13 51 0.0 0.0 0.00 0.28 0.00 75 1025.9
20260906081026 13 51 0.0 0.0 0.00 0.28 0.00 74 1026.0
20260906080520 13 51 0.0 0.0 0.00 0.28 0.00 74 1026.0
20260906080019 13 51 0.0 0.0 0.00 0.28 0.00 74 1026.0
20260906075513 13 51 0.0 0.0 0.00 0.28 0.00 73 1026.1
20260906075028 13 51 0.0 0.0 0.00 0.28 0.00 74 1026.1
20260906074523 13 51 0.0 0.0 0.00 0.28 0.00 73 1026.2
20260906074016 13 51 0.0 0.0 0.00 0.28 0.00 73 1026.2
20260906073511 13 51 0.0 0.0 0.00 0.28 0.00 71 1026.2
20260906073025 14 51 0.0 0.0 0.00 0.28 0.00 72 1026.2
20260906072524 14 51 0.0 0.0 0.00 0.28 0.00 70 1026.2
20260906072018 14 51 0.0 0.0 0.00 0.28 0.00 72 1026.4
20260906071511 14 51 0.0 0.0 0.00 0.28 0.00 71 1026.4
20260906071025 14 51 0.0 0.0 0.00 0.28 0.00 71 1026.4
20260906070540 14 51 0.0 0.0 0.00 0.28 0.00 72 1026.5
20260906070013 15 51 0.0 0.0 0.00 0.28 0.00 69 1026.5
20260906065527 15 51 0.0 0.0 0.00 0.28 0.00 70 1026.6
20260906065021 15 51 0.0 0.0 0.00 0.28 0.00 70 1026.5
20260906064535 15 51 0.0 0.0 0.00 0.28 0.00 68 1026.5
20260906064030 15 51 0.0 0.0 0.00 0.28 0.00 70 1026.5
20260906063527 15 51 0.0 0.0 0.00 0.28 0.00 67 1026.5
20260906063021 15 51 0.0 0.0 0.00 0.28 0.28 68 1026.5
20260906062514 15 51 0.0 0.0 0.00 0.28 0.28 69 1026.5
20260906062049 15 51 0.0 0.0 0.00 0.28 0.28 68 1026.5
20260906061522 15 51 0.0 0.0 0.00 0.28 0.28 68 1026.4
20260906061016 16 51 0.0 0.0 0.00 0.28 0.28 65 1026.5
20260906060511 16 51 0.0 0.0 0.00 0.28 0.28 65 1026.4
20260906060045 16 51 0.0 0.0 0.00 0.28 0.28 68 1026.4
20260906055518 16 51 0.0 0.0 0.00 0.28 0.28 66 1026.4
20260906055033 16 51 0.0 0.0 0.00 0.28 0.28 63 1026.4
20260906054510 16 51 0.0 0.0 0.00 0.28 0.28 63 1026.4
20260906054023 16 51 0.0 0.0 0.00 0.28 0.28 64 1026.4
20260906053516 17 51 0.0 0.0 0.00 0.28 0.28 63 1026.3
20260906053010 17 51 0.0 0.0 0.00 0.28 0.28 63 1026.4
20260906052524 17 51 0.0 0.0 0.00 0.28 0.28 61 1026.4
20260906052019 18 51 0.0 0.0 0.00 0.28 0.28 62 1026.2
20260906051512 18 51 0.0 0.0 0.00 0.28 0.28 57 1026.2
20260906051026 18 51 0.0 0.0 0.00 0.28 0.28 58 1026.2
20260906050523 18 51 0.0 0.0 0.00 0.28 0.28 58 1026.1
20260906050017 19 51 0.0 0.0 0.00 0.28 0.28 53 1026.1
20260906045511 20 51 0.0 0.0 0.00 0.28 0.28 54 1026.0
20260906045024 20 51 0.0 0.0 0.00 0.28 0.28 51 1026.0
20260906044518 20 51 0.0 0.0 0.00 0.28 0.28 49 1025.9
20260906044032 21 51 0.0 0.0 0.00 0.28 0.28 48 1026.0
20260906043545 21 51 0.0 8.0 0.00 0.28 0.28 44 1026.0
20260906043018 21 51 0.0 8.0 0.00 0.28 0.28 43 1025.8
20260906042511 21 46 3.2 4.8 0.00 0.28 0.28 41 1025.7
20260906042009 22 215 1.6 3.2 0.00 0.28 0.28 41 1025.6
20260906041522 22 310 0.0 12.9 0.00 0.28 0.28 42 1025.5
20260906041016 22 5 3.2 12.9 0.00 0.28 0.28 39 1025.5
20260906040510 22 300 3.2 11.3 0.00 0.28 0.28 40 1025.5
20260906040022 22 43 3.2 16.1 0.00 0.28 0.28 40 1025.5
20260906035517 22 289 4.8 16.1 0.00 0.28 0.28 39 1025.5
20260906035011 22 81 1.6 6.4 0.00 0.28 0.28 40 1025.4
20260906034525 22 346 1.6 6.4 0.00 0.28 0.28 40 1025.4
20260906034022 22 299 1.6 4.8 0.00 0.28 0.28 40 1025.4
20260906033516 22 309 1.6 11.3 0.00 0.28 0.28 40 1025.4
20260906033009 22 259 3.2 12.9 0.00 0.28 0.28 40 1025.3
20260906032523 22 286 3.2 12.9 0.00 0.28 0.28 40 1025.3
20260906032018 22 286 3.2 6.4 0.00 0.28 0.28 42 1025.3
20260906031511 22 280 1.6 8.0 0.00 0.28 0.28 40 1025.2
20260906031025 22 244 1.6 8.0 0.00 0.28 0.28 40 1025.2
20260906030519 22 219 3.2 6.4 0.00 0.28 0.28 41 1025.1
20260906030016 22 286 1.6 4.8 0.00 0.28 0.28 42 1025.0
20260906025510 22 43 0.0 6.4 0.00 0.28 0.28 41 1025.0
20260906025023 22 43 1.6 6.4 0.00 0.28 0.28 41 1025.0
20260906024518 22 48 1.6 4.8 0.00 0.28 0.28 43 1024.9
20260906024012 22 314 1.6 6.4 0.00 0.28 0.28 42 1024.8
20260906023546 21 318 1.6 6.4 0.00 0.28 0.28 44 1024.7
20260906023018 21 350 0.0 4.8 0.00 0.28 0.28 44 1024.7
20260906022512 21 350 1.6 4.8 0.00 0.28 0.28 47 1024.6
20260906022009 20 350 1.6 4.8 0.00 0.28 0.28 47 1024.7
20260906021522 20 308 1.6 3.2 0.00 0.28 0.28 52 1024.7
20260906021016 20 308 1.6 3.2 0.00 0.28 0.28 53 1024.7
20260906020509 20 294 1.6 3.2 0.00 0.28 0.28 52 1024.7
20260906020022 20 294 0.0 3.2 0.00 0.28 0.28 57 1024.6
20260906015535 20 49 0.0 0.0 0.00 0.28 0.28 57 1024.6
20260906015009 20 49 0.0 0.0 0.00 0.28 0.28 58 1024.6
20260906014522 20 49 0.0 0.0 0.00 0.28 0.28 58 1024.6
20260906014016 20 49 0.0 3.2 0.00 0.28 0.28 60 1024.6
20260906013514 21 49 0.0 3.2 0.00 0.28 0.28 58 1024.5
20260906013048 21 49 0.0 0.0 0.00 0.28 0.28 57 1024.5
20260906012541 21 49 0.0 0.0 0.00 0.28 0.28 58 1024.5
20260906012034 21 49 0.0 0.0 0.00 0.28 0.28 57 1024.5
20260906011527 22 49 0.0 0.0 0.00 0.28 0.28 57 1024.5
20260906011020 22 49 0.0 0.0 0.00 0.28 0.28 58 1024.6
20260906010514 22 49 0.0 0.0 0.00 0.28 0.28 61 1024.5
20260906010047 22 49 0.0 0.0 0.00 0.28 0.28 61 1024.4
20260906005517 22 49 0.0 0.0 0.00 0.28 0.28 59 1024.5
20260906005029 23 49 0.0 0.0 0.00 0.28 0.28 60 1024.5
20260906004526 23 49 0.0 0.0 0.00 0.28 0.28 58 1024.4
20260906004020 23 49 0.0 0.0 0.00 0.28 0.28 55 1024.4
20260906003514 23 49 0.0 0.0 0.00 0.28 0.28 52 1024.4
20260906003027 23 49 0.0 0.0 0.00 0.28 0.28 52 1024.4
20260906002521 23 49 0.0 0.0 0.00 0.28 0.28 50 1024.4
20260906002015 24 49 0.0 0.0 0.00 0.28 0.28 49 1024.4
20260906001549 24 49 0.0 0.0 0.00 0.28 0.28 48 1024.4
20260906001022 24 49 0.0 0.0 0.00 0.28 0.28 49 1024.3
20260906000520 24 49 0.0 0.0 0.00 0.28 0.28 47 1024.3
20260906000013 24 49 0.0 0.0 0.00 0.28 0.28 48 1024.3
20260905235527 25 49 0.0 0.0 0.00 0.28 0.28 48 1024.1
20260905235020 25 49 0.0 0.0 0.00 0.28 0.28 48 1024.3
20260905234515 25 49 0.0 0.0 0.00 0.28 0.28 47 1024.3
20260905234028 25 49 0.0 0.0 0.00 0.28 0.28 48 1024.3
20260905233522 25 49 0.0 0.0 0.00 0.28 0.28 49 1024.3
20260905233015 25 49 0.0 0.0 0.00 0.28 0.28 49 1024.3
20260905232513 25 49 0.0 0.0 0.00 0.28 0.28 49 1024.3
20260905232026 25 49 0.0 0.0 0.00 0.28 0.28 45 1024.3
20260905231541 25 49 0.0 3.2 0.00 0.28 0.28 44 1024.4
20260905231113 25 49 0.0 4.8 0.00 0.28 0.28 45 1024.3
20260905230607 25 49 1.6 6.4 0.00 0.28 0.28 42 1024.4
20260905230120 25 57 4.8 8.0 0.00 0.28 0.28 41 1024.5
20260905225615 25 46 3.2 4.8 0.00 0.28 0.28 45 1024.4
20260905225129 25 157 0.0 4.8 0.00 0.28 0.28 44 1024.5
20260905224621 25 160 0.0 6.4 0.00 0.28 0.28 48 1024.5
20260905224115 25 56 3.2 6.4 0.00 0.28 0.28 46 1024.6
20260905223614 25 15 1.6 12.9 0.00 0.28 0.28 47 1024.5
20260905223107 25 46 6.4 16.1 0.00 0.28 0.28 45 1024.6
20260905222621 25 54 8.0 16.1 0.00 0.28 0.28 46 1024.6
20260905222135 24 45 4.8 12.9 0.00 0.28 0.28 49 1024.6
20260905221607 23 50 3.2 8.0 0.00 0.28 0.28 52 1024.8
20260905221120 23 53 1.6 8.0 0.00 0.28 0.28 52 1024.8
20260905220634 23 49 1.6 8.0 0.00 0.28 0.28 53 1024.8
20260905220106 22 49 4.8 8.0 0.00 0.28 0.28 54 1024.8
20260905215620 22 75 1.6 4.8 0.00 0.28 0.28 56 1024.9
20260905215114 22 32 1.6 4.8 0.00 0.28 0.28 57 1024.9
20260905214632 22 109 0.0 8.0 0.00 0.28 0.28 58 1024.9
20260905214104 22 53 3.2 9.7 0.00 0.28 0.28 57 1025.0
20260905213618 22 40 6.4 11.3 0.00 0.28 0.28 59 1025.0
20260905213112 21 53 4.8 11.3 0.00 0.28 0.28 65 1025.0
20260905212606 21 125 0.0 0.0 0.00 0.28 0.28 77 1025.0
20260905212119 21 241 0.0 0.0 0.00 0.28 0.28 83 1025.0
20260905211611 21 241 0.0 0.0 0.05 0.28 0.28 81 1025.0
20260905211105 20 241 0.0 0.0 0.13 0.28 0.28 86 1025.1
20260905210624 19 241 0.0 0.0 0.28 0.28 0.28 87 1025.3
20260905210116 19 241 0.0 0.0 0.28 0.28 0.28 86 1025.3
20260905205610 19 241 0.0 0.0 0.28 0.28 0.28 85 1025.3
20260905205104 19 241 0.0 0.0 0.28 0.28 0.28 86 1025.4
20260905204618 19 241 0.0 0.0 0.28 0.28 0.28 85 1025.5
20260905204111 19 241 0.0 1.6 0.28 0.28 0.28 84 1025.5
20260905194114 26 153 1.6 4.8 0.00 0.00 0.00 39 1025.7
20260905193606 26 119 3.2 4.8 0.00 0.00 0.00 39 1025.7
20260905193141 26 61 0.0 0.0 0.00 0.00 0.00 40 1025.8
20260905192614 26 61 0.0 1.6 0.00 0.00 0.00 39 1025.9
20260905192108 26 178 0.0 1.6 0.00 0.00 0.00 39 1026.0
20260905191603 27 178 0.0 4.8 0.00 0.00 0.00 40 1026.1
20260905191117 27 178 1.6 4.8 0.00 0.00 0.00 37 1026.2
20260905190635 27 14 1.6 4.8 0.00 0.00 0.00 37 1026.2
20260905190128 27 57 1.6 8.0 0.00 0.00 0.00 38 1026.2
20260905185621 27 270 3.2 4.8 0.00 0.00 0.00 38 1026.3
20260905185135 26 158 3.2 4.8 0.00 0.00 0.00 40 1026.4
20260905184608 26 34 0.0 0.0 0.00 0.00 0.00 39 1026.5
20260905184106 26 33 0.0 4.8 0.00 0.00 0.00 38 1026.6
20260905183620 26 61 1.6 6.4 0.00 0.00 0.00 38 1026.6
20260905183114 26 103 3.2 9.7 0.00 0.00 0.00 39 1026.7
20260905182612 26 186 4.8 9.7 0.00 0.00 0.00 40 1026.7
20260905182107 26 187 4.8 16.1 0.00 0.00 0.00 41 1026.8
20260905181621 25 147 6.4 16.1 0.00 0.00 0.00 40 1026.9
20260905181114 25 56 1.6 8.0 0.00 0.00 0.00 40 1026.9
20260905180608 26 41 3.2 14.5 0.00 0.00 0.00 38 1027.0
20260905180143 26 126 4.8 14.5 0.00 0.00 0.00 40 1027.1
20260905175616 26 78 1.6 9.7 0.00 0.00 0.00 41 1027.2
20260905175114 26 166 4.8 9.7 0.00 0.00 0.00 40 1027.2
20260905174608 26 71 4.8 12.9 0.00 0.00 0.00 41 1027.1
20260905174122 25 117 3.2 9.7 0.00 0.00 0.00 42 1027.1
20260905173636 25 45 4.8 8.0 0.00 0.00 0.00 40 1027.2
20260905173108 25 147 1.6 6.4 0.00 0.00 0.00 40 1027.3
20260905172643 25 86 3.2 8.0 0.00 0.00 0.00 41 1027.4
20260905172116 25 146 3.2 12.9 0.00 0.00 0.00 42 1027.2
20260905171610 25 159 6.4 12.9 0.00 0.00 0.00 40 1027.2
20260905171104 25 143 4.8 12.9 0.00 0.00 0.00 41 1027.2
20260905170618 25 156 3.2 11.3 0.00 0.00 0.00 41 1027.4
20260905170132 25 130 3.2 11.3 0.00 0.00 0.00 42 1027.3
20260905165604 25 276 1.6 6.4 0.00 0.00 0.00 42 1027.4
20260905165115 24 217 0.0 6.4 0.00 0.00 0.00 41 1027.4
20260905164603 24 217 1.6 6.4 0.00 0.00 0.00 43 1027.4
20260905163630 23 130 3.2 6.4 0.00 0.00 0.00 44 1027.4
20260905163104 23 186 1.6 6.4 0.00 0.00 0.00 47 1027.4
20260905162635 23 300 0.0 4.8 0.00 0.00 0.00 47 1027.4
20260905162125 23 312 1.6 4.8 0.00 0.00 0.00 47 1027.4
20260905161619 23 228 1.6 4.8 0.00 0.00 0.00 44 1027.4
20260905161117 22 144 1.6 11.3 0.00 0.00 0.00 48 1027.4
20260905160609 22 140 6.4 11.3 0.00 0.00 0.00 49 1027.4
20260905155618 22 38 1.6 6.4 0.00 0.00 0.00 53 1027.4
20260905155112 22 155 3.2 6.4 0.00 0.00 0.00 55 1027.4
20260905154613 21 102 0.0 4.8 0.00 0.00 0.00 55 1027.4
20260905154128 21 102 1.6 6.4 0.00 0.00 0.00 56 1027.5
20260905153618 21 49 3.2 6.4 0.00 0.00 0.00 55 1027.5
20260905153112 22 146 0.0 0.0 0.00 0.00 0.00 58 1027.6
20260905152605 21 146 0.0 0.0 0.00 0.00 0.00 56 1027.5
20260905152119 21 146 0.0 0.0 0.00 0.00 0.00 58 1027.5
20260905151613 21 146 0.0 0.0 0.00 0.00 0.00 58 1027.5
20260905151118 21 146 0.0 0.0 0.00 0.00 0.00 59 1027.5
20260905150606 20 146 0.0 0.0 0.00 0.00 0.00 62 1027.4
20260905150119 20 146 0.0 0.0 0.00 0.00 0.00 64 1027.4
20260905145613 19 146 0.0 0.0 0.00 0.00 0.00 66 1027.4